Radiation Dose at Monitoring Post of Fukushima Daini Nuclear Power Station
Date,Time,MP-1(microSv/h),MP-2(microSv/h),MP-3(microSv/h),MP-4(microSv/h),MP-5(microSv/h),MP-6(microSv/h),MP-7(microSv/h),Wind Direction,Wind Velocity(m/s),Rain
2020/11/16,00:00,0.181,0.158,0.262,0.248,0.245,0.143,0.086,southwest,5.8,No
2020/11/16,00:10,0.182,0.161,0.261,0.248,0.247,0.142,0.086,southwest,5.3,No
2020/11/16,00:20,0.180,0.160,0.263,0.249,0.245,0.142,0.086,southwest,5.3,No
2020/11/16,00:30,0.182,0.160,0.262,0.249,0.248,0.142,0.085,southwest,5.5,No
2020/11/16,00:40,0.182,0.160,0.263,0.250,0.247,0.142,0.085,southwest,5.0,No
2020/11/16,00:50,0.181,0.159,0.261,0.250,0.246,0.143,0.085,south-southwest,5.3,No
2020/11/16,01:00,0.181,0.159,0.263,0.248,0.248,0.142,0.086,south-southwest,6.0,No
2020/11/16,01:10,0.183,0.160,0.262,0.249,0.246,0.142,0.086,south-southwest,6.2,No
2020/11/16,01:20,0.181,0.159,0.262,0.250,0.247,0.141,0.085,southwest,5.8,No
2020/11/16,01:30,0.182,0.159,0.263,0.249,0.246,0.142,0.086,southwest,3.5,No
2020/11/16,01:40,0.181,0.160,0.263,0.249,0.247,0.143,0.086,southwest,2.6,No
2020/11/16,01:50,0.182,0.160,0.262,0.250,0.246,0.142,0.086,west,2.7,No
2020/11/16,02:00,0.182,0.159,0.263,0.248,0.245,0.143,0.086,west,3.3,No
2020/11/16,02:10,0.181,0.160,0.261,0.249,0.246,0.143,0.086,south-southwest,1.7,No
2020/11/16,02:20,0.183,0.160,0.263,0.250,0.247,0.144,0.086,southwest,4.2,No
2020/11/16,02:30,0.183,0.160,0.262,0.249,0.247,0.143,0.085,southwest,4.9,No
2020/11/16,02:40,0.181,0.160,0.263,0.248,0.248,0.142,0.086,southwest,4.9,No
2020/11/16,02:50,0.181,0.160,0.262,0.250,0.246,0.143,0.085,southwest,4.3,No
2020/11/16,03:00,0.182,0.159,0.262,0.249,0.249,0.143,0.086,southwest,4.6,No
2020/11/16,03:10,0.182,0.160,0.262,0.249,0.248,0.143,0.086,southwest,3.2,No
2020/11/16,03:20,0.181,0.160,0.262,0.250,0.246,0.143,0.086,south-southwest,1.9,No
2020/11/16,03:30,0.182,0.161,0.264,0.249,0.247,0.143,0.086,southwest,2.5,No
2020/11/16,03:40,0.181,0.160,0.264,0.249,0.247,0.143,0.086,southwest,1.8,No
2020/11/16,03:50,0.182,0.160,0.263,0.250,0.248,0.143,0.087,west-southwest,2.5,No
2020/11/16,04:00,0.182,0.159,0.264,0.249,0.249,0.143,0.086,west,2.0,No
2020/11/16,04:10,0.182,0.159,0.262,0.249,0.247,0.143,0.087,west-southwest,2.2,No
2020/11/16,04:20,0.182,0.159,0.264,0.250,0.249,0.142,0.086,west-southwest,1.1,No
2020/11/16,04:30,0.181,0.159,0.264,0.249,0.247,0.142,0.086,west,1.5,No
2020/11/16,04:40,0.181,0.159,0.263,0.249,0.246,0.142,0.086,west,1.8,No
2020/11/16,04:50,0.182,0.160,0.262,0.249,0.247,0.143,0.086,west,1.4,No
2020/11/16,05:00,0.181,0.159,0.264,0.249,0.247,0.143,0.086,west-southwest,3.0,No
2020/11/16,05:10,0.181,0.159,0.263,0.249,0.248,0.142,0.086,west-southwest,3.9,No
2020/11/16,05:20,0.181,0.160,0.262,0.251,0.246,0.143,0.086,west-southwest,4.3,No
2020/11/16,05:30,0.181,0.159,0.263,0.249,0.247,0.143,0.086,west-southwest,3.9,No
2020/11/16,05:40,0.180,0.160,0.263,0.250,0.247,0.142,0.086,west-southwest,4.7,No
2020/11/16,05:50,0.182,0.160,0.262,0.250,0.246,0.143,0.086,west-southwest,5.4,No
2020/11/16,06:00,0.181,0.159,0.263,0.249,0.247,0.143,0.087,west-southwest,5.2,No
2020/11/16,06:10,0.181,0.160,0.263,0.249,0.247,0.142,0.086,southwest,4.6,No
2020/11/16,06:20,0.180,0.160,0.263,0.250,0.246,0.143,0.085,southwest,4.7,No
2020/11/16,06:30,0.182,0.159,0.262,0.250,0.248,0.142,0.086,west-southwest,5.1,No
2020/11/16,06:40,0.181,0.160,0.263,0.249,0.246,0.141,0.086,west-southwest,4.8,No
2020/11/16,06:50,0.182,0.160,0.263,0.249,0.246,0.142,0.086,west-southwest,6.1,No
2020/11/16,07:00,0.182,0.160,0.264,0.249,0.247,0.142,0.087,west-southwest,8.1,No
2020/11/16,07:10,0.181,0.160,0.262,0.249,0.246,0.142,0.085,west-southwest,6.6,No
2020/11/16,07:20,0.181,0.160,0.263,0.249,0.248,0.142,0.086,west,5.5,No
2020/11/16,07:30,0.180,0.161,0.264,0.248,0.245,0.142,0.085,west-southwest,3.8,No
2020/11/16,07:40,0.181,0.159,0.262,0.250,0.247,0.143,0.085,west-southwest,6.0,No
2020/11/16,07:50,0.181,0.159,0.261,0.247,0.245,0.142,0.086,west-southwest,6.5,No
2020/11/16,08:00,0.180,0.159,0.262,0.249,0.247,0.141,0.085,west-southwest,5.6,No
2020/11/16,08:10,0.180,0.160,0.261,0.247,0.246,0.142,0.086,west-southwest,5.0,No
2020/11/16,08:20,0.181,0.159,0.264,0.249,0.248,0.142,0.086,west-southwest,5.7,No
2020/11/16,08:30,0.181,0.159,0.261,0.248,0.245,0.142,0.086,west-southwest,6.0,No
2020/11/16,08:40,0.181,0.159,0.264,0.249,0.247,0.143,0.085,west,5.4,No
2020/11/16,08:50,0.181,0.158,0.262,0.248,0.245,0.141,0.085,west-southwest,6.4,No
2020/11/16,09:00,0.180,0.160,0.263,0.249,0.247,0.143,0.086,west,6.6,No
2020/11/16,09:10,0.181,0.160,0.262,0.247,0.245,0.142,0.086,west,6.0,No
2020/11/16,09:20,0.181,0.158,0.263,0.247,0.246,0.142,0.085,west,4.8,No
2020/11/16,09:30,0.182,0.159,0.262,0.249,0.246,0.142,0.085,west,5.6,No
2020/11/16,09:40,0.182,0.157,0.261,0.247,0.246,0.142,0.085,west,5.8,No
2020/11/16,09:50,0.179,0.159,0.261,0.244,0.248,0.143,0.085,west,3.6,No
2020/11/16,10:00,0.180,0.159,0.263,0.249,0.245,0.143,0.085,west,2.0,No
2020/11/16,10:10,0.181,0.159,0.262,0.249,0.243,0.142,0.085,west-southwest,3.8,No
2020/11/16,10:20,0.178,0.160,0.261,0.247,0.246,0.142,0.085,west-southwest,4.1,No
2020/11/16,10:30,0.180,0.159,0.264,0.249,0.245,0.142,0.086,southwest,2.7,No
2020/11/16,10:40,0.180,0.158,0.259,0.248,0.244,0.142,0.086,west-southwest,2.2,No
2020/11/16,10:50,0.179,0.159,0.261,0.248,0.246,0.143,0.086,west-southwest,1.9,No
2020/11/16,11:00,0.182,0.159,0.262,0.249,0.247,0.142,0.086,west-southwest,2.7,No
2020/11/16,11:10,0.180,0.160,0.263,0.249,0.245,0.143,0.086,west-southwest,2.8,No
2020/11/16,11:20,0.182,0.159,0.263,0.250,0.249,0.143,0.086,west-southwest,3.0,No
2020/11/16,11:30,0.183,0.159,0.260,0.248,0.246,0.143,0.085,west-southwest,4.8,No
2020/11/16,11:40,0.181,0.159,0.262,0.248,0.245,0.142,0.086,west-southwest,2.9,No
2020/11/16,11:50,0.180,0.159,0.261,0.250,0.248,0.142,0.086,west,4.9,No
2020/11/16,12:00,0.181,0.160,0.262,0.248,0.246,0.143,0.086,west,5.6,No
2020/11/16,12:10,0.182,0.159,0.262,0.249,0.245,0.142,0.085,west-southwest,5.8,No
2020/11/16,12:20,0.181,0.159,0.261,0.249,0.248,0.141,0.085,west,4.2,No
2020/11/16,12:30,0.182,0.159,0.262,0.247,0.245,0.142,0.085,west,2.7,No
2020/11/16,12:40,0.181,0.158,0.261,0.250,0.245,0.143,0.086,west,5.9,No
2020/11/16,12:50,0.181,0.160,0.262,0.248,0.248,0.141,0.086,west,6.4,No
2020/11/16,13:00,0.182,0.159,0.264,0.246,0.245,0.142,0.085,west-northwest,6.4,No
2020/11/16,13:10,0.181,0.158,0.260,0.248,0.244,0.143,0.085,west,5.1,No
2020/11/16,13:20,0.180,0.157,0.260,0.249,0.247,0.142,0.086,west-northwest,8.1,No
2020/11/16,13:30,0.179,0.159,0.263,0.247,0.246,0.142,0.085,west-northwest,5.6,No
2020/11/16,13:40,0.181,0.159,0.261,0.246,0.246,0.143,0.085,west-northwest,5.3,No
2020/11/16,13:50,0.180,0.159,0.263,0.249,0.243,0.141,0.085,west-northwest,10.7,No
2020/11/16,14:00,0.181,0.158,0.263,0.248,0.248,0.142,0.085,west-northwest,8.5,No
2020/11/16,14:10,0.182,0.158,0.263,0.248,0.245,0.143,0.086,west,7.2,No
2020/11/16,14:20,0.181,0.158,0.264,0.249,0.245,0.142,0.085,west,9.6,No
2020/11/16,14:30,0.181,0.159,0.262,0.248,0.249,0.142,0.085,west,12.2,No
2020/11/16,14:40,0.181,0.159,0.264,0.250,0.247,0.142,0.085,west-northwest,10.0,No
2020/11/16,14:50,0.182,0.159,0.263,0.249,0.249,0.142,0.084,west-northwest,10.4,No
2020/11/16,15:00,0.181,0.160,0.264,0.249,0.246,0.142,0.085,west,10.7,No
2020/11/16,15:10,0.183,0.158,0.261,0.249,0.247,0.142,0.084,west,10.3,No
2020/11/16,15:20,0.182,0.159,0.264,0.250,0.248,0.142,0.085,west-northwest,11.5,No
2020/11/16,15:30,0.182,0.158,0.262,0.250,0.247,0.141,0.085,west-northwest,13.4,No
2020/11/16,15:40,0.181,0.160,0.264,0.248,0.248,0.143,0.085,west-northwest,10.9,No
2020/11/16,15:50,0.181,0.159,0.263,0.249,0.245,0.142,0.085,west-northwest,8.7,No
2020/11/16,16:00,0.181,0.159,0.264,0.249,0.248,0.143,0.085,west,8.7,No
2020/11/16,16:10,0.181,0.159,0.263,0.249,0.245,0.142,0.086,west,9.6,No
2020/11/16,16:20,0.182,0.160,0.264,0.249,0.247,0.143,0.086,west,5.8,No
2020/11/16,16:30,0.182,0.159,0.263,0.250,0.247,0.141,0.085,west,5.9,No
2020/11/16,16:40,0.181,0.159,0.263,0.249,0.247,0.142,0.085,west,4.6,No
2020/11/16,16:50,0.182,0.160,0.264,0.249,0.246,0.142,0.085,west,5.8,No
2020/11/16,17:00,0.181,0.160,0.264,0.250,0.248,0.142,0.085,west,7.1,No
2020/11/16,17:10,0.182,0.161,0.263,0.248,0.246,0.142,0.085,west-northwest,6.2,No
2020/11/16,17:20,0.181,0.159,0.262,0.250,0.247,0.142,0.086,west-northwest,5.1,No
2020/11/16,17:30,0.181,0.159,0.264,0.248,0.247,0.141,0.085,west,4.9,No
2020/11/16,17:40,0.181,0.159,0.263,0.249,0.246,0.142,0.085,west,4.6,No
2020/11/16,17:50,0.181,0.158,0.263,0.248,0.246,0.142,0.085,west,6.7,No
2020/11/16,18:00,0.181,0.159,0.263,0.249,0.246,0.142,0.085,west,9.5,No
2020/11/16,18:10,0.182,0.160,0.262,0.249,0.246,0.142,0.085,west,9.2,No
2020/11/16,18:20,0.182,0.160,0.264,0.248,0.245,0.142,0.086,west,10.9,No
2020/11/16,18:30,0.183,0.160,0.263,0.250,0.248,0.142,0.085,west-northwest,7.2,No
2020/11/16,18:40,0.180,0.160,0.261,0.249,0.245,0.142,0.085,west,7.7,No
2020/11/16,18:50,0.181,0.159,0.264,0.250,0.248,0.142,0.085,west-northwest,5.5,No
2020/11/16,19:00,0.181,0.160,0.263,0.248,0.245,0.142,0.085,west,5.3,No
2020/11/16,19:10,0.181,0.159,0.263,0.249,0.247,0.142,0.086,west,4.9,No
2020/11/16,19:20,0.181,0.159,0.264,0.249,0.246,0.141,0.085,west,3.4,No
2020/11/16,19:30,0.181,0.160,0.265,0.249,0.247,0.142,0.085,west-southwest,6.6,No
2020/11/16,19:40,0.181,0.160,0.263,0.250,0.247,0.142,0.085,west-southwest,6.6,No
2020/11/16,19:50,0.181,0.159,0.264,0.249,0.246,0.143,0.085,west-southwest,6.3,No
2020/11/16,20:00,0.182,0.161,0.261,0.250,0.247,0.142,0.085,west,5.8,No
2020/11/16,20:10,0.181,0.160,0.262,0.249,0.247,0.142,0.085,west,6.1,No
2020/11/16,20:20,0.181,0.160,0.264,0.249,0.247,0.142,0.086,west-southwest,4.8,No
2020/11/16,20:30,0.180,0.160,0.263,0.250,0.246,0.142,0.086,west-southwest,3.7,No
2020/11/16,20:40,0.182,0.159,0.263,0.249,0.247,0.142,0.084,west-southwest,3.0,No
2020/11/16,20:50,0.181,0.159,0.262,0.249,0.247,0.142,0.085,west-southwest,2.8,No
2020/11/16,21:00,0.181,0.159,0.265,0.249,0.246,0.142,0.086,west,3.0,No
2020/11/16,21:10,0.182,0.159,0.264,0.250,0.248,0.142,0.086,west,3.4,No
2020/11/16,21:20,0.182,0.160,0.263,0.250,0.246,0.144,0.085,northwest,3.6,No
2020/11/16,21:30,0.182,0.159,0.264,0.249,0.248,0.143,0.086,west-northwest,2.7,No
2020/11/16,21:40,0.182,0.159,0.263,0.250,0.246,0.142,0.085,west-northwest,1.4,No
2020/11/16,21:50,0.182,0.161,0.262,0.250,0.248,0.143,0.085,west-southwest,2.3,No
2020/11/16,22:00,0.181,0.159,0.264,0.249,0.248,0.143,0.085,west,1.5,No
2020/11/16,22:10,0.181,0.161,0.263,0.250,0.246,0.143,0.086,west-northwest,2.8,No
2020/11/16,22:20,0.182,0.159,0.264,0.249,0.249,0.143,0.086,west-northwest,3.2,No
2020/11/16,22:30,0.182,0.160,0.265,0.250,0.247,0.143,0.086,west-northwest,3.6,No
2020/11/16,22:40,0.182,0.160,0.263,0.250,0.247,0.142,0.085,northwest,3.3,No
2020/11/16,22:50,0.182,0.161,0.263,0.249,0.248,0.143,0.086,west-northwest,3.0,No
2020/11/16,23:00,0.182,0.160,0.264,0.250,0.246,0.142,0.086,west-northwest,2.4,No
2020/11/16,23:10,0.181,0.160,0.262,0.250,0.250,0.143,0.085,northwest,2.7,No
2020/11/16,23:20,0.182,0.160,0.264,0.250,0.248,0.143,0.086,northwest,2.6,No
2020/11/16,23:30,0.182,0.159,0.264,0.249,0.247,0.143,0.086,west-northwest,2.9,No
2020/11/16,23:40,0.181,0.160,0.263,0.250,0.247,0.144,0.086,northwest,2.0,No
2020/11/16,23:50,0.183,0.161,0.264,0.250,0.246,0.144,0.085,west-northwest,2.7,No
